Terminal Aerodrome Forecast
Issued by NWS

Home | Current Version | Previous Version | Text Only | Print | Product List | Glossary On
Versions: 1 2 3 4 5 6 7 8 9 10 11 12 13 14 15 16 17 18 19
000
FTUS46 KMFR 212339
TAFOTH
TAF
KOTH 212339Z 2200/2224 24007KT 5SM -RA BR BKN008 OVC014
      TEMPO 2200/2203 1SM RA BR OVC005
     FM220300 21007KT 6SM -RA BR OVC015
     FM220900 17005KT P6SM SCT010 OVC020
     FM221100 15004KT 2SM BR OVC008=

USA.gov is the U.S. government's official web portal to all federal, state and local government web resources and services.